Regional Weather Roundup
Issued by NWS

Home | Current Version | Previous Version | Text Only | Print | Product List | Glossary Off
Versions: 1 2 3 4 5 6 7 8 9 10 11 12 13 14 15 16 17 18 19 20 21 22 23 24 25 26 27 28 29 30 31 32 33 34 35 36 37 38 39 40 41 42 43 44 45 46 47 48 49 50

000
ASUS43 KLOT 190904
RWRIL

ILLINOIS REGIONAL WEATHER ROUNDUP
NATIONAL WEATHER SERVICE CHICAGO/ROMEOVILLE IL
400 AM CDT THU OCT 19 2017

NOTE: "FAIR" INDICATES FEW OR NO CLOUDS BELOW 12,000 FEET WITH NO
SIGNIFICANT WEATHER AND/OR OBSTRUCTIONS TO VISIBILITY.

* THESE STATIONS ARE NOT UNDER NWS QUALITY CONTROL. THEY ALSO MAY NOT
  REPORT WEATHER SUCH AS PRECIPITATION OR FOG.

ILZ001-002-007-009-015-016-024-191000-
NORTHWEST ILLINOIS

CITY           SKY/WX    TMP DP  RH WIND       PRES   REMARKS
MOLINE         CLEAR     54  44  69 W5        30.06R
STERLING*      CLOUDY    46  43  89 CALM        N/A
SAVANNA*       CLEAR     51  45  81 CALM      30.06S
$$

ILZ003-004-008-010-011-017-018-191000-
NORTH CENTRAL ILLINOIS

CITY           SKY/WX    TMP DP  RH WIND       PRES   REMARKS
ROCKFORD       PTCLDY    52  44  74 W5        30.07R
FREEPORT*      CLOUDY    46  42  85 CALM      30.07S
ROCHELLE*      CLOUDY    44  42  93 CALM      30.07R
DE KALB*       CLEAR     52  46  80 W7        30.06R
PERU*          CLEAR     51  46  82 SW8       30.07S
$$

ILZ005-006-012>014-019>023-191000-
NORTHEAST ILLINOIS

CITY           SKY/WX    TMP DP  RH WIND       PRES   REMARKS
CHICAGO-OHARE  PTCLDY    56  46  69 SW8       30.04R
CHICAGO-MIDWAY PTCLDY    56  48  74 SW9       30.05R
AURORA         CLEAR     52  46  80 SW7       30.06S
LANSING*       CLEAR     50  47  89 SW6       30.06F
JOLIET*        CLEAR     56  49  78 SW3       30.06S
WAUKEGAN       CLOUDY    56  45  66 VRB5      30.02R
DUPAGE AIRPORT CLEAR     52  47  83 SW10      30.04S
KANKAKEE*      CLEAR     53  46  78 SW6       30.09R
WHEELING       CLEAR     56  47  71 SW6       30.05R
MORRIS*        CLEAR     52  47  81 SW6       30.05S
NORTHERLY ISL    N/A     58  46  64 SW7         N/A
$$

LMZ740>746-191000-
SOUTHERN LAKE MICHIGAN

STATION/POSITION SKY/WX   TEMP    WIND        PRES    VSBY  WAVE
                          AIR SEA DIR/SP/G                  HT/PER
                          (F)     (DEG/KT/KT) (MB)    (MI)  (FT/S)
SOUTHERN BUOY              62 61  260/ 17/ 19 1015.7          4/ 6
WILMETTE HARBOR            59 57  240/ 14/ 17   N/A           2/ 3
HARRISON CRIB              62     240/ 19/ 22   N/A
BURNHAM HARBOR             58     220/  7/ 12   N/A
CALUMET HARBOR             57     210/  6/ 10 1016.7F
BURNS HARBOR               57     200/ 11/ 17 1018.3S
MICHIGAN CITY              55     190/ 10/ 12   N/A
MICHIGAN CITY 6N           57 58  220/ 14/ 17   N/A           2/ 4
ST. JOSEPH                 58 58  230/ 16/ 19 1017.8F         4/ 4
$$

ILZ025>027-034>036-040-047-049-050-058-095>099-191000-
WEST-CENTRAL ILLINOIS

CITY           SKY/WX    TMP DP  RH WIND       PRES   REMARKS
QUINCY         CLEAR     52  45  77 S8        30.08S
GALESBURG*     CLEAR     49  44  85 S3        30.08S
MACOMB*        CLEAR     52  45  77 SW7       30.09S
JACKSONVILLE*  CLEAR     54  47  76 S7        30.10S
PITTSFIELD*    CLEAR     55  48  77 S5        30.11S
$$

ILZ028>032-037-038-041>044-048-051>054-059>061-191000-
CENTRAL ILLINOIS

CITY           SKY/WX    TMP DP  RH WIND       PRES   REMARKS
PONTIAC        CLEAR     55  51  86 SW8       30.08F
BLOOMINGTON    CLEAR     53  47  79 SW10      30.11R
DECATUR        CLEAR     54  48  80 SW10      30.11F
PEORIA         CLEAR     51  47  86 S5        30.08S
LACON*         CLEAR     54  49  82 SW5       30.06S
LINCOLN*       CLEAR     53  49  86 S3        30.10S
SPRINGFIELD    CLEAR     55  49  80 SW6       30.11S
TAYLORVILLE    CLEAR     52  47  83 S6        30.12S
$$

ILZ033-039-045-046-055>057-062-063-191000-
EAST-CENTRAL ILLINOIS

CITY           SKY/WX    TMP DP  RH WIND       PRES   REMARKS
CHAMPAIGN      CLEAR     51  46  83 S9        30.11F
DANVILLE*      CLEAR     52  46  82 SW9       30.09F
RANTOUL*       CLEAR     52  48  87 S3        30.11S
MATTOON        CLEAR     53  48  83 S10       30.12F
PARIS*         CLEAR     55  48  79 S10       30.14F
$$

ILZ079-100>102-191000-
SOUTHWEST ILLINOIS

CITY           SKY/WX    TMP DP  RH WIND       PRES   REMARKS
ALTON          CLEAR     52  49  88 CALM      30.13F
BELLEVILLE     CLEAR     49  45  87 S5        30.17S
CAHOKIA*       CLEAR     52  47  83 S3        30.14S
SPARTA*        CLEAR     55  47  74 S6        30.17F
$$

ILZ064>066-069>071-074>076-080>082-084>086-088>090-092>094-191000-
SOUTH-CENTRAL ILLINOIS

CITY           SKY/WX    TMP DP  RH WIND       PRES   REMARKS
CARBONDALE     CLEAR     51  48  89 CALM      30.17S
CAIRO*         CLEAR     53  48  81 S6        30.19S
EFFINGHAM*     CLEAR     51  48  89 SE5       30.17S
MARION         CLEAR     55  49  79 CALM      30.18S
MT. VERNON     CLEAR     44  44 100 CALM      30.17S FOG
CENTRALIA*     CLEAR     52  48  87 S6        30.15F
SALEM*         CLEAR     54  48  78 S5        30.16S
METROPOLIS*    CLEAR     54  47  78 S6        30.19S
$$

ILZ067-068-072-073-078-083-087-091-191000-
SOUTHEAST ILLINOIS

CITY           SKY/WX    TMP DP  RH WIND       PRES   REMARKS
LAWRENCEVILLE  CLEAR     48  45  89 S7        30.18S
FLORA*         CLEAR     48  46  92 S3        30.17F
FAIRFIELD*     CLEAR     53  47  81 CALM      30.17S
HARRISBURG*    CLEAR     47  45  93 S3        30.19S
ROBINSON*      CLEAR     46  44  93 CALM      30.18S
CARMI*         CLEAR     45  45  98 CALM      30.18S
$$

ABBREVIATIONS USED IN REMARKS
   TC - TEMPERATURE IN CELSIUS
  WCI - WIND CHILL INDEX
   HX - HEAT INDEX
  VSB - VISIBILITY
$$





USA.gov is the U.S. government's official web portal to all federal, state and local government web resources and services.